www.pogodaiklimat.ru

Погода и климат >> Архив погоды >> Индонезия >> Масамба


ПОГОДА в Масамбе

  • Прогноз погоды в Масамбе
  • Монитор погоды в Масамбе

АРХИВ ПОГОДЫ в Масамбе

Время (UTC), дата Ветер
(напр.,м/с)
 
Видим.   Явления Облачность Т
(С)
Тd
(С)
f
(%)
Тe
(С)
Тes
(С)
Комфортность P
(гПа)
Po
(гПа)
Тmin
(С)
Tmax
(С)
R
(мм)
R24
(мм)
S
(см)
15 14.07 штиль 0 8000 м 9/3 500 м
[Sc As op]
+24.6 +23.0 91 +33 +33 очень
душно
1013.0 1008.7
18 14.07 штиль 0 8000 м 9/3 500 м
[Sc As op]
+24.4 +22.5 89 +32 +32 очень
душно
1012.2 1007.9 746
21 14.07 штиль 0 8000 м 9/3 500 м
[Sc As op]
+24.2 +22.3 89 +31 +31 очень
душно
1011.9 1007.6
00 15.07 штиль 0 8000 м 9/3 500 м
[Sc As op]
+23.8 +21.9 89 +31 +32 очень
душно
1013.1 1008.8 +23.8
03 15.07 штиль 0 8000 м 6/4 500 м
[Cu med, cong Ac trans Ci fib]
+27.4 +22.4 74 +36 +48 очень
душно
1011.8 1007.5
06 15.07 Ю 1 8000 м 9/4 500 м
[Cu med, cong As op Ci fib]
+29.2 +21.4 63 +37 +43 очень
душно
1009.5 1005.2
09 15.07 СЗ 1 8000 м 9/4 500 м
[Cu med, cong As op Ci fib]
+29.2 +22.7 68 +39 +39 очень
душно
1008.4 1004.1
12 15.07 штиль 0 8000 м 9/3 500 м
[Sc As op]
+27.0 +22.5 76 +35 +35 очень
душно
1011.0 1006.7 +30.4
15 15.07 СВ 2 7000 м слаб. дождь 10/4 480 м
[Cb cap As op]
+25.0 +21.6 81 +32 +32 очень
душно
1012.4 1008.1 0.0
18 15.07 С 2 7000 м слаб. дождь 10/4 480 м
[Cb cap As op]
+23.0 +21.4 91 +31 +31 очень
душно
1011.7 1007.4 26
21 15.07 С 3 7000 м в посл. час дождь 10/4 480 м
[Cb cap As op]
+23.0 +21.4 91 +31 +31 очень
душно
1011.5 1007.2 0.2
00 16.07 штиль 0 5000 м слаб. дождь 10/4 450 м
[Cb cap As op]
+23.4 +22.4 94 +32 +33 очень
душно
1013.6 1009.3 +22.8 0.0
03 16.07 З 2 6000 м в посл. час дождь 9/4 450 м
[Cb cap As op]
+24.6 +22.7 89 +32 +36 очень
душно
1013.4 1009.1 2
06 16.07 Ю 1 8000 м {дождь} 9/4 500 м
[Cu med, cong As op Ci fib]
+28.4 +21.2 65 +36 +41 очень
душно
1010.6 1006.3 2
09 16.07 штиль 0 8000 м 4/3 500 м
[Cu med, cong As trans Ci fib]
+28.7 +21.9 67 +37 +38 очень
душно
1009.3 1005.0
12 16.07 штиль 0 8000 м 9/3 500 м
[Sc As op]
+24.9 +21.8 83 +32 +32 очень
душно
1011.5 1007.2 +29.0
15 16.07 штиль 0 8000 м 9/3 500 м
[Sc As op]
+23.8 +21.6 87 +30 +30 очень
душно
1012.4 1008.8
18 16.07 С 2 8000 м 9/3 500 м
[Sc As op]
+23.4 +21.0 86 +31 +31 очень
душно
1011.0 1006.7
21 16.07 штиль 0 8000 м 9/3 500 м
[Sc As op]
+23.2 +21.1 88 +31 +31 очень
душно
1010.7 1006.4
00 17.07 штиль 0 7000 м слаб. дождь 9/3 500 м
[Sc As op]
+23.4 +21.5 89 +32 +33 очень
душно
1012.3 1007.9 +22.9 0.0
03 17.07 Ю 1 7000 м {дождь} 9/3 500 м
[Sc As op]
+26.4 +22.2 78 +34 +39 очень
душно
1011.6 1007.3 0.0
06 17.07 С 5 7000 м {дождь} 9/4 480 м
[Cb cap As op Ci fib]
+27.2 +22.1 74 +35 +38 очень
душно
1009.0 1004.7 0.0
09 17.07 СВ 1 8000 м 9/3 480 м
[Sc As op]
+26.0 +22.1 79 +34 +34 очень
душно
1008.6 1004.3
12 17.07 С 2 7000 м 9/3 480 м
[Sc As op]
+25.0 +22.6 87 +33 +33 очень
душно
1010.5 1006.2 +29.6
15 17.07 С 2 7000 м в посл. час дождь 9/4 480 м
[Cb cap As op]
+23.4 +22.5 95 +32 +32 очень
душно
1011.6 1007.3 2
18 17.07 штиль 0 6000 м в посл. час дождь 10/4 450 м
[Cb cap As op]
+23.8 +22.8 94 +31 +31 очень
душно
1010.6 1006.3 0.7
21 17.07 штиль 0 7000 м 10/4 480 м
[Cb cap As op]
+23.8 +22.8 94 +31 +31 очень
душно
1010.1 1005.8
00 18.07 штиль 0 8000 м 9/3 500 м
[Sc As op]
+24.4 +22.8 91 +32 +34 очень
душно
1011.3 1007.0 +22.8 3
06 18.07 штиль 0 8000 м 9/3 500 м
[Sc As op]
+29.0 +23.1 71 +39 +43 очень
душно
1008.3 1004.0
09 18.07 штиль 0 8000 м {дождь} 9/3 500 м
[Sc As op]
+27.0 +24.2 85 +38 +38 очень
душно
1008.2 1003.9 5
12 18.07 СВ 4 8000 м {дождь} 9/3 500 м
[Sc As op]
+25.4 +24.2 93 +35 +35 очень
душно
1010.1 1005.8 +30.2 5
15 18.07 штиль 0 8000 м 9/3 500 м
[Sc As op]
+24.6 +23.2 92 +33 +33 очень
душно
1011.4 1007.1
18 18.07 штиль 0 8000 м 9/3 500 м
[Sc As op]
+24.2 +23.1 94 +32 +32 очень
душно
1010.5 1006.2
21 18.07 штиль 0 8000 м 9/3 500 м
[Sc As op]
+24.1 +22.8 92 +32 +32 очень
душно
1009.6 1005.3
00 19.07 СВ 2 8000 м 9/3 500 м
[Sc As op]
+24.8 +22.9 89 +33 +34 очень
душно
1010.8 1006.5 +23.4 5
03 19.07 штиль 0 8000 м 6/4 500 м
[Cu med, cong Ac trans Ci fib]
+29.4 +23.4 70 +40 +52 опасность
солнечного
удара
1010.4 1006.1
06 19.07 штиль 0 8000 м 9/4 500 м
[Cu med, cong As op Ci fib]
+31.4 +23.6 63 +42 +49 опасность
перегрева
1008.4 1004.1
09 19.07 З 1 8000 м 4/3 500 м
[Cu med, cong As trans Ci fib]
+31.6 +22.9 60 +42 +42 опасность
перегрева
1007.5 1003.2
12 19.07 штиль 0 8000 м 9/3 500 м
[Sc As op]
+28.2 +24.1 78 +39 +39 очень
душно
1009.7 1005.4 +32.4
15 19.07 штиль 0 8000 м 9/3 480 м
[Cb cap As op]
+27.0 +24.0 84 +37 +37 очень
душно
1011.2 1006.9
18 19.07 штиль 0 8000 м в посл. час дождь 9/3 500 м
[Sc As op]
+26.0 +24.5 91 +36 +36 очень
душно
1010.3 1006.0 0.2
21 19.07 С 2 8000 м 9/3 500 м
[Sc As op]
+24.8 +23.5 92 +33 +33 очень
душно
1009.4 1005.1
00 20.07 С 2 8000 м 9/3 500 м
[Sc As op]
+25.0 +22.2 84 +32 +33 очень
душно
1011.7 1007.4 +23.8
03 20.07 Ю 2 8000 м 8/4 500 м
[Cu med, cong As op Ci fib]
+29.2 +22.4 67 +38 +46 очень
душно
1011.7 1007.4
06 20.07 СВ 3 8000 м 9/4 500 м
[Cu med, cong As op Ci fib]
+29.8 +21.8 62 +38 +42 очень
душно
1009.4 1005.1
09 20.07 С 2 8000 м 9/3 500 м
[Sc As op Ci fib]
+28.4 +23.7 76 +39 +39 очень
душно
1008.5 1004.2
12 20.07 штиль 0 8000 м 9/3 500 м
[Cu med, cong As op]
+26.7 +23.6 83 +36 +36 очень
душно
1010.4 1006.1 +30.1
15 20.07 штиль 0 8000 м 9/3 500 м
[Sc As op]
+25.2 +23.0 88 +34 +34 очень
душно
1011.3 1007.0
18 20.07 СВ 2 8000 м {дождь} 9/3 500 м
[Sc As op]
+24.0 +23.0 94 +32 +32 очень
душно
1010.4 1006.1 4
21 20.07 штиль 0 8000 м 9/3 500 м
[Sc As op]
+24.0 +22.8 93 +32 +32 очень
душно
1010.2 1005.9
00 21.07 С 2 8000 м 6/3 500 м
[Sc Ac trans Ci fib]
+25.2 +23.4 90 +34 +37 очень
душно
1011.4 1007.1 +23.8 4
03 21.07 штиль 0 8000 м 4/3 500 м
[Cu med, cong As trans Ci fib]
+29.4 +23.0 68 +39 +55 опасность
солнечного
удара
1010.1 1005.8
06 21.07 Ю 2 9000 м 5/4 500 м
[Cu med, cong As op Ci fib]
+32.4 +23.2 58 +43 +50 опасность
перегрева
1007.8 1003.5
09 21.07 Ю 4 9000 м 6/3 500 м
[Cu med, cong As op Ci fib]
+29.8 +23.4 69 +40 +41 очень
душно
1007.8 1003.5
12 21.07 штиль 0 8000 м 9/3 500 м
[Sc As op]
+27.2 +23.0 78 +36 +36 очень
душно
1010.2 1005.9 +32.8

 

Местоположение метеостанции Масамба (Индонезия): широта -2.55 долгота 120.36 высота над уровнем моря 50 м.

В архиве по умолчанию представлена погода в Масамбе за последнюю неделю. Архивные данные за месяц целиком и за предыдущие месяцы, начиная с января 2011 года, Вы можете получить, выбрав интересующий диапазон дат из раскрывающегося списка и нажав кнопку "Ввод!".


*Определитесь, кто Вы:
робот инопланетянин человек

Внимание! Время в таблицах - всемирное. Для получения местного времени необходимо прибавить поправку, которая равна 8 ч.

Смотрите также архив погоды в соседних городах и на ближайших метеорологических станциях:

Погода в Посо (Индонезия) (136 км)
Погода в Маджене (Индонезия) (151 км)
Погода в Палу (Индонезия) (219 км)
Погода в Колаке (Индонезия) (234 км)
Погода в Кендари (Индонезия) (287 км)
Погода в Аэропорту Султана Хасануддин (Индонезия) (294 км)
Погода в Уджангпанданге (Индонезия) (294 км)
Погода в Лувуке (Индонезия) (326 км)
Погода в Толи-Толи (Индонезия) (400 км)
Погода в Бау-Бау (Индонезия) (410 км)

Пояснения к столбцам:

Ветер - указаны скорость ветра в м/с - средняя за 10 мин, порывы в срок и между сроками (в фигурных скобках) и направление, откуда дует ветер: С - северный, СВ - северо-восточный, В - восточный, ЮВ - юго-восточный, Ю - южный, ЮЗ - юго-западный, З - западный, СЗ - северо-западный.
Видимость - горизонтальная дальность видимости в метрах или километрах. При видимости от 1 до 10 км при отсутствии осадков обычно наблюдается дымка, при ухудшении видимости до 1 км и менее - туман. В сухую погоду видимость может ухудшаться дымом, пылью или мглою.
Явления - указаны атмосферные явления, наблюдавшиеся в срок или в последний час перед сроком; фигурными скобками обозначены явления, наблюдавшиеся между сроками (за 1-3 часа до срока); квадратными скобками обозначены град или гололедные отложения с указанием их диаметра в мм.
Облачность - указаны через наклонную черту общая и нижняя облачность в баллах и высота нижней границы облаков в метрах; квадратными скобками обозначены формы облаков: Ci - перистые, Cs - перисто-слоистые, Cc - перисто-кучевые, Ac - высококучевые, As - высокослоистые, Sc - слоисто-кучевые, Ns - слоисто-дождевые, Cu - кучевые, Cb - кучево-дождевые. Подробнее классификацию облаков см. в Атласе облаков (PDF).
T - Температура воздуха - температура, измеренная на высоте 2 м над землей.
Td - Температура точки росы - температура, при понижении до которой содержащийся в воздухе водяной пар достигнет насыщения.
f - Относительная влажность воздуха - влажноcть воздуха, измеренная на высоте 2 м над землей.
Te - Эффективная температура - температура, которую ощущает одетый по сезону человек в тени. Характеристика душности погоды. При расчете учитывается влияние влажности воздуха и скорости ветра на теплоощущения человека.
Tes - Эффективная температура на солнце - температура, которую ощущает человек, с поправкой на солнечный нагрев. Характеристика знойности погоды. Зависит от высоты солнца над горизонтом, облачности и скорости ветра. Ночью, в пасмурную погоду, а также при ветре 12 м/с и более поправка равна нулю.
P - Атмосферное давление - приведенное к уровню моря атмосферное давление.
Po - Атмосферное давление - измеренное на уровне метеостанции атмосферное давление.
Tmin - Минимальная температура - минимум температуры воздуха на высоте 2 м над землей.
Tmax - Максимальная температура - максимум температуры воздуха на высоте 2 м над землей.
R - Количество осадков - Количество выпавших осадков за период времени, мм. При наведении курсора мыши на число - период времени, за который выпало указанное количество осадков.
R24 - Количество осадков - Количество выпавших осадков за 24 часа, мм.
S - Снежный покров - Высота снежного покрова, см. При наведении курсора мыши на число - состояние снежного покрова и степень покрытия местности в баллах.